Jackpot

Texas Poker Multi Jackpot System

Kini Telah hadir Jackpot SUPER ROYAL FLUSH

Kini Telah hadir Jackpot 2000 (khusus table VIP keatas).

Ikutilah global jackpot yang tersedia di system kami, dengan system jackpot terbaru dan pertama di indonesia, anda dapat membeli jackpot dengan harga 100 rupiah saja dan menangkan hadiahnya hingga puluhan juta rupiah.

Jackpot bukanlah suatu keharusan untuk dibeli, namun kami memberikan suatu fitur tambahan untuk member tercinta dari www.judipoker.com.

Terdapat tiga pilihan harga jackpot yang bisa anda beli yaitu :100,500,1000 dan 2000(khusus table VIP Keatas) rupiah.

Hadiah dari Multi jackpot system www.judipoker.com

  1. full house x 10 harga jackpot yang anda beli.
      (contoh:anda membeli 1000 maka:1000 X10 = 10.000)
  2. four of kind x 250 harga jackpot yang anda beli
      (contoh:anda membeli 1000 maka:1000 X250 = 250.000)
  3. Straight flush x 1200
      (contoh:anda membeli 1000 maka:1000 X1200 = 1.200.000)
  4. Royal flush x 10000 harga jackpot yang anda beli
      (contoh:anda membeli 1000 maka:1000 X10000 = 10.000.000)
  5. SUPER ROYAL FLUSH x 30000 harga jackpot yang anda beli
      (contoh:anda membeli 1000 maka:1000 X30000 = 30.000.000)

Kondisi kartu

  1. full house adalah kondisi kartu dimana kartu anda dan kartu tengah dengan total 7 kartu bisa mendapatkan nilai 5 kartu dengan kombinasi 1 tris(three of kind) dan 1 pair, contoh 3 kartu 10 dan 2 kartu 5
  2. Four of kind adalah kondisi kartu dimana kartu anda dan kartu tengah dengan total 7 kartu bisa mendapatkan nilai 5 kartu dengan kombinasi 4 kartu yang sama jumlah dan 1 kartu apapun juga contoh anda mendapatkan 4 buah kartu angka 3 dan 1 kartu apapun.
  3. Staright flush adalah kondisi kartu dimana kartu anda dan kartu tengah dengan total 7 kartu bisa mendapatkan nilai 5 kartu dengan kombinasi seri / staright dengan kembang yang sama contoh : urutan kartu dari angka 5, 6, 7, 8 , 9 10 dengan kembang yg sama misalnya as hati
  4. Royal flush adalah kondisi kartu dimana kartu anda dan kartu tengah dengan total 7 kartu bisa mendapatkan nilai 5 kartu dengan kombinasi seri / staright dengan kembang yang sama tetapi kartu tersebut haruslah dimulai dari 10. contoh 10, Queen, Jack, King dan aces dengan kembang yang sama
  5. Super Royal flush adalah kondisi kartu dimana Kedua kartu anda digabung dengan 3 kartu pertama meja haruslah royal flush. contoh kartu anda 10,Queen kembang sama dan 3 kartu pertama meja adalah Jack, King dan aces dengan kembang yang sama

Demikian adalah penjelasan dari Multi Jackpot www.judipoker.com terima kasih dan selamat bermain salam hoki dari kami

Texas Poker Jackpot Winner

TOP SUPER ROYAL FLUSH
No.TanggalNamaPriceWin
122/11 06:48TOLOLJP88Super Royal flush3,000,000
221/11 23:49UDAKARTUSuper Royal flush6,000,000
321/11 18:47SYIFA59Super Royal flush3,000,000
421/11 18:36FISH8888888Super Royal flush15,000,000
521/11 15:28HGUKAM33AYSuper Royal flush30,000,000
TOP ROYAL FLUSH
No.TanggalNamaPriceWin
122/11 08:35BRAMASTA47Royal flush2,000,000
222/11 07:04G3LSRoyal flush10,000,000
322/11 06:49LAS7799Royal flush5,000,000
422/11 05:38NATSU017Royal flush1,000,000
522/11 05:37PARIUAKSRoyal flush2,000,000
TOP STRAIGHT FLUSH
No.TanggalNamaPriceWin
122/11 08:50AURELIO4Straight Flush120,000
222/11 08:42DEDEBONK17Straight Flush240,000
322/11 08:40DREW999Straight Flush60,000
422/11 08:39FE0CE8DAStraight Flush1,200,000
522/11 08:37KOLER456Straight Flush120,000
LATEST JACKPOT
No.TanggalNamaPriceWin
122/11 08:51ESHAGAZFull House20,000
222/11 08:50GUMELAFull House1,000
322/11 08:50MARTINNABAFull House2,000
422/11 08:50KANYANG192Full House10,000
522/11 08:50LABANG12Full House2,000
622/11 08:50KUNTUNG212Full House2,000
722/11 08:50AURELIO4Straight Flush120,000
822/11 08:50QBJQF9SWFYFull House10,000
922/11 08:50CIBAIMUFull House10,000
1022/11 08:50DD44A760Full House1,000
1122/11 08:50AAPHAAPH27Full House1,000
1222/11 08:50PAHADADAFour Of A Kind250,000
1322/11 08:50BOTAK995Full House2,000
1422/11 08:50QQGURUHFull House1,000
1522/11 08:50AYIE92Full House5,000
1622/11 08:50T3DJ4Full House5,000
1722/11 08:50P4NJ0L11Full House2,000
1822/11 08:50B4BAKEFull House1,000
1922/11 08:50HASNAH99Full House5,000
2022/11 08:50ENNO12Full House10,000
2122/11 08:50E7710C00Four Of A Kind500,000
2222/11 08:50H4FIZ09Four Of A Kind125,000
2322/11 08:50DOAMAMAHKUFull House5,000
2422/11 08:50MOESTIKAFull House5,000
2522/11 08:50AGSOMBINGFull House500
2622/11 08:50HOKINAN2Full House2,000
2722/11 08:50ANDYYYYFull House10,000
2822/11 08:50B4ND1TZFull House5,000
2922/11 08:50UHIBUKYFull House20,000
3022/11 08:50ALANTOPANIFull House2,000
3122/11 08:50MERAH717Full House2,000
3222/11 08:50DWBTSUGE32Full House5,000
3322/11 08:50HDYG69Full House2,000
3422/11 08:50RUSTANG12Full House5,000
3522/11 08:50IJXXQ17JBUFull House1,000
3622/11 08:50BOSKKAAFull House1,000
3722/11 08:50BIJIBAYE88Full House2,000
3822/11 08:49DBCBEECBFull House2,000
3922/11 08:49PARJOO88Full House10,000
4022/11 08:49CIKIDONKFull House2,000
4122/11 08:49ELDES88Full House10,000
4222/11 08:49MUNCRAT888Full House1,000
4322/11 08:49SPECKERSFull House2,000
4422/11 08:49MC9P5Q3EVDFull House2,000
4522/11 08:49GOWINS26Full House5,000
4622/11 08:49SISIELFull House1,000
4722/11 08:49JAF1RRFour Of A Kind50,000
4822/11 08:49BKW9OLP6V2Full House500
4922/11 08:49FAHA44144Full House2,000
5022/11 08:49SYIFA555Full House2,000

Domino Multi Jackpot System

Ikutilah global jackpot yang tersedia di system kami, dengan system jackpot terbaru dan pertama di indonesia, anda dapat membeli jackpot dengan harga 100 rupiah saja dan menangkan hadiahnya hingga puluhan juta rupiah.

Jackpot bukanlah suatu keharusan untuk dibeli, namun kami memberikan suatu fitur tambahan untuk member tercinta dari www.judipoker.com.

Terdapat tiga pilihan harga jackpot yang bisa anda beli yaitu :100,500 dan 1000 rupiah.

Hadiah dari Multi jackpot system www.judipoker.com

  1. Murni Kecil x 50 harga jackpot yang anda beli.
      (contoh:anda membeli 1000 maka:1000 X 50 = 50.000)
  2. Murni Besar x 50 harga jackpot yang anda beli
      (contoh:anda membeli 1000 maka:1000 X 50 = 50.000)
  3. BALAK x 100 harga jackpot yang anda beli
      (contoh:anda membeli 1000 maka:1000 X 100 = 100.000)
  4. ENAM DEWA x 6666 harga jackpot yang anda beli
      (contoh:anda membeli 1000 maka:1000 X 6666 = 6.666.000)

Demikian adalah penjelasan dari Multi Jackpot www.judipoker.com terima kasih dan selamat bermain salam hoki dari kami

Domino Jackpot Winner

TOP ENAM DEWA
No.TanggalNamaPriceWin
122/11 08:29PEDHAS87murni enam666,600
222/11 08:13YATULMAH22murni enam6,666,000
322/11 02:13M_PI3murni enam666,600
422/11 01:34QQINDAHQmurni enam6,666,000
522/11 01:08OKILAmurni enam6,666,000
TOP BALAK
No.TanggalNamaPriceWin
122/11 08:36DEVILITO10balak100,000
222/11 08:35INDRASLUHbalak100,000
322/11 08:26TEMPE209balak100,000
422/11 08:13BRAGA3333balak100,000
522/11 08:07RICKO14balak10,000
LATEST JACKPOT
No.TanggalNamaPriceWin
122/11 08:49HON0BIXXSTmurni besar25,000
222/11 08:49ENGKO_99murni besar50,000
322/11 08:45KPN72murni kecil50,000
422/11 08:45SBSENCARIQmurni kecil50,000
522/11 08:44BERUK22murni besar50,000
622/11 08:40SHAKImurni besar50,000
722/11 08:40IPUTPUTRImurni kecil25,000
822/11 08:39COBAQQQQmurni besar50,000
922/11 08:39KEONG50murni besar25,000
1022/11 08:38PAUL7Cmurni besar50,000
1122/11 08:37ZAKI678murni kecil50,000
1222/11 08:37MOHAK12murni kecil5,000
1322/11 08:37M4Y4N9_9murni besar5,000
1422/11 08:36KES_RAKmurni besar50,000
1522/11 08:36SHAKImurni besar50,000
1622/11 08:36DEVILITO10balak100,000
1722/11 08:36GOLVANIKmurni kecil5,000
1822/11 08:35INDRASLUHbalak100,000
1922/11 08:35ZAKI678murni besar50,000
2022/11 08:33ENGKO_99murni kecil50,000
2122/11 08:32TL080721murni besar50,000
2222/11 08:31B72A8394murni kecil5,000
2322/11 08:29PEDHAS87murni enam666,600
2422/11 08:27ROLAND8989lucky992,500
2522/11 08:26INDRASLUHmurni kecil50,000
2622/11 08:26LOVE36murni kecil25,000
2722/11 08:26TEMPE209balak100,000
2822/11 08:23GLANTER87murni besar50,000
2922/11 08:22AHMAIDAmurni kecil50,000
3022/11 08:21M4Y4N9_9murni besar5,000
3122/11 08:16SIKUNCIR28murni besar25,000
3222/11 08:15CEE509A6murni besar5,000
3322/11 08:14DEVI6003murni besar25,000
3422/11 08:14JAZY_88murni kecil50,000
3522/11 08:13YATULMAH22murni enam6,666,000
3622/11 08:13LOREN222murni kecil5,000
3722/11 08:13BRAGA3333balak100,000
3822/11 08:12MUDHATOlucky9925,000
3922/11 08:12ETJDAYmurni besar50,000
4022/11 08:10ETJDAYmurni kecil50,000
4122/11 08:08RIKITONGmurni besar25,000
4222/11 08:07RICKO14balak10,000
4322/11 08:06JN4HFYmurni besar50,000
4422/11 08:06JAZY_88lucky9925,000
4522/11 08:05PAUL7Cmurni besar50,000
4622/11 08:03JENAR21murni besar5,000
4722/11 08:02SUN2011lucky9910,000
4822/11 08:01SHILA17murni kecil50,000
4922/11 07:59IDIBW171121murni besar5,000
5022/11 07:58PAS23murni kecil25,000

Ceme Multi Jackpot System

Jackpot dilihat dari gabungan kartu pemain dengan kartu bandar. Bandar harus membeli jackpot sebanyak jumlah player yang sedang duduk. Sebagai contoh bila terdapat 3 pemain duduk bermain, dan bandar memutuskan untuk membeli jackpot Rp 1.000, maka pada periode tersebut bandar akan membeli jackpot sebanyak 3xRp1.000 = Rp3.000.

Jackpot bukanlah suatu keharusan untuk dibeli, namun kami memberikan suatu fitur tambahan untuk member tercinta dari www.judipoker.com.

Terdapat tiga pilihan harga jackpot yang bisa anda beli yaitu :100,500 dan 1000 rupiah.

Hadiah dari Multi jackpot system www.judipoker.com

  1. Murni Kecil x 50 harga jackpot yang anda beli.
      (contoh:anda membeli 1000 maka:1000 X 50 = 50.000)
  2. Murni Besar x 50 harga jackpot yang anda beli
      (contoh:anda membeli 1000 maka:1000 X 50 = 50.000)
  3. BALAK x 200 harga jackpot yang anda beli
      (contoh:anda membeli 1000 maka:1000 X 200 = 200.000)
  4. ENAM DEWA x 6666 harga jackpot yang anda beli
      (contoh:anda membeli 1000 maka:1000 X 6666 = 6.666.000)

Demikian adalah penjelasan dari Multi Jackpot www.judipoker.com terima kasih dan selamat bermain salam hoki dari kami

Ceme Jackpot Winner

TOP ENAM DEWA
No.TanggalNamaPriceWin
122/11 08:44BLASTER66murni enam666,600
222/11 07:45NABILAAJAmurni enam3,333,000
322/11 07:32TYO_TYO20murni enam666,600
422/11 07:32P4P109murni enam3,333,000
522/11 07:11SIMEN297murni enam6,666,000
TOP BALAK
No.TanggalNamaPriceWin
122/11 08:49IWAN32balak200,000
222/11 08:49IDIBW171121balak100,000
322/11 08:48LB881016balak200,000
422/11 08:47TOR8181balak200,000
522/11 08:47SALCOY7balak100,000
LATEST JACKPOT
No.TanggalNamaPriceWin
122/11 08:50DJAROT766murni besar50,000
222/11 08:50TYO_TYO20murni besar5,000
322/11 08:50SUBSKIR88murni besar5,000
422/11 08:50SHASSAmurni kecil5,000
522/11 08:50SAXTUWELLmurni kecil50,000
622/11 08:49NT_88murni besar50,000
722/11 08:49RIIL99murni besar25,000
822/11 08:49YAS29murni besar50,000
922/11 08:49IWAN32balak200,000
1022/11 08:49IDIBW171121balak100,000
1122/11 08:49UNTUNG700murni kecil50,000
1222/11 08:48LB881016balak200,000
1322/11 08:48YAS29murni kecil50,000
1422/11 08:48BE6AD174murni kecil25,000
1522/11 08:48DESTRO38murni kecil50,000
1622/11 08:48DWIARI57murni kecil50,000
1722/11 08:48IQIBOY6666murni kecil25,000
1822/11 08:48SHASSAmurni besar5,000
1922/11 08:48IDNGKRIB76murni besar25,000
2022/11 08:47TOR8181balak200,000
2122/11 08:47MHEYLANImurni besar5,000
2222/11 08:47PEKING1311murni kecil50,000
2322/11 08:47SALCOY7balak100,000
2422/11 08:47PHANTOM_4murni kecil5,000
2522/11 08:46DECHAN9999murni besar25,000
2622/11 08:46YKB88144murni kecil25,000
2722/11 08:46AMS_LUCKY9balak200,000
2822/11 08:46GASKOYbalak200,000
2922/11 08:46LCDPECAH5murni kecil50,000
3022/11 08:46IAMOKE12murni kecil5,000
3122/11 08:45FADLI347balak200,000
3222/11 08:45AHOKQQ99balak200,000
3322/11 08:45IMAU6DAMAMbalak100,000
3422/11 08:45C2A0AF1Bmurni kecil5,000
3522/11 08:44T64PU83A6Cmurni besar25,000
3622/11 08:44DIKA_19murni besar25,000
3722/11 08:44T64PU83A6Cmurni besar25,000
3822/11 08:44AMENX92murni besar50,000
3922/11 08:44HE12UPWmurni kecil50,000
4022/11 08:44FLIV6XYK0Lmurni kecil50,000
4122/11 08:44ALIENKIN19balak200,000
4222/11 08:44T64PU83A6Cmurni kecil25,000
4322/11 08:44KAPTEN05murni kecil5,000
4422/11 08:44DEMANG338murni kecil50,000
4522/11 08:44CH4RLE55murni kecil50,000
4622/11 08:44BLASTER66murni enam666,600
4722/11 08:43LCDPECAH5murni kecil50,000
4822/11 08:43MANGAKO88murni kecil5,000
4922/11 08:43DIKA_19balak100,000
5022/11 08:43C2A0AF1Bmurni besar5,000